Theta_e
320 315 314 310 307 307 307 307 308 310 310 307 304 303 302 301 300 298 299 298 295 294 293 293 293 294 294 295 296 296 297 297 298 299 300 301 303 306
314 311 309 307 306 306 305 305 304 305 308 305 304 302 301 300 299 298 298 296 295 294 293 293 292 294 295 295 295 295 296 297 297 298 299 299 301 305
309 308 306 304 304 304 303 303 303 303 304 304 302 301 300 299 298 297 297 296 296 295 293 294 295 295 295 295 296 296 296 296 298 298 298 298 300 305
306 304 303 303 303 302 302 302 302 302 302 303 301 300 298 297 297 297 296 295 295 295 295 295 295 294 294 294 294 294 295 294 296 298 299 297 302 305
305 303 301 301 302 302 302 302 301 301 300 299 298 298 297 297 297 296 295 295 295 295 295 295 295 295 295 294 295 293 292 293 295 298 298 300 304 305
304 301 302 301 302 302 301 301 301 300 298 297 296 296 296 296 295 295 294 294 294 295 295 294 296 296 296 294 294 292 294 296 298 298 300 302 304 305
300 300 301 300 299 300 299 300 299 298 296 295 295 294 294 294 294 293 293 293 293 295 294 296 297 296 295 294 292 294 296 299 300 300 302 303 303 305
299 298 296 295 295 295 295 296 296 297 296 295 295 294 294 293 293 292 292 293 293 294 294 294 296 296 295 293 291 292 293 299 301 301 303 303 304 306
296 297 296 294 293 293 291 290 289 289 289 292 293 293 293 292 291 291 292 292 293 294 293 294 295 294 293 291 291 290 292 297 302 302 303 304 305 307
297 296 295 295 295 294 295 294 293 292 290 289 290 292 291 291 290 290 291 292 293 295 291 294 292 292 291 290 291 292 291 296 302 303 303 304 306 307
295 295 296 295 292 292 293 292 291 289 288 289 289 290 291 291 291 290 290 290 293 293 292 290 291 291 290 289 290 291 292 293 295 302 303 305 305 306
292 293 293 294 290 289 293 291 288 288 288 288 290 290 291 290 290 289 288 289 290 292 290 289 290 290 292 291 288 289 290 292 293 294 294 300 302 296
292 292 291 290 289 288 289 289 288 287 288 289 289 290 289 289 289 288 288 288 288 289 289 287 289 290 291 290 289 286 286 288 288 291 293 293 294 296
292 292 290 289 288 287 288 287 287 288 288 289 289 289 290 290 288 287 287 287 286 286 286 286 288 289 289 291 289 286 285 285 286 286 287 289 290 292
292 290 289 288 287 287 286 286 287 288 288 288 289 288 288 288 287 288 288 288 287 287 285 286 287 288 289 289 288 287 287 285 285 286 286 286 287 288
290 289 288 288 288 287 286 287 287 287 288 288 288 288 289 289 289 290 290 290 289 288 286 285 286 287 288 288 288 287 286 287 285 285 285 286 287 287
289 288 289 289 289 288 288 288 288 288 287 287 288 288 289 289 290 290 289 289 289 288 287 285 285 284 285 287 287 286 285 285 284 285 284 284 284 285
290 290 289 289 289 289 288 288 288 287 287 287 287 288 289 289 289 288 288 288 288 287 287 286 287 287 288 285 284 285 284 284 283 283 283 282 282 282
291 290 289 289 289 288 288 288 288 287 287 287 287 287 287 288 288 288 288 287 287 287 286 286 287 288 290 288 284 283 284 283 283 282 282 281 281 280
290 290 289 289 288 288 288 288 287 287 287 287 286 286 287 287 287 288 287 287 287 287 286 285 285 286 288 287 284 282 282 282 282 281 280 279 279 279
289 289 289 288 288 287 287 287 287 287 286 286 286 286 286 287 287 287 287 286 286 286 285 284 283 283 284 284 284 282 281 281 281 280 280 280 280 280
288 288 288 287 287 287 286 286 286 286 286 286 285 285 285 287 287 286 287 286 285 284 284 284 284 285 285 284 283 282 281 280 280 281 281 281 282 282
287 287 286 286 285 285 286 286 286 286 286 286 286 285 286 286 286 286 286 286 285 284 284 284 284 284 284 284 283 282 282 282 282 281 280 281 281 280
Wind_Speed
21 15 13 11 11 9 8 7 7 4 5 4 4 4 13 14 17 20 22 23 30 25 26 24 23 24 24 25 26 27 28 30 31 30 30 30 30 30
17 16 13 11 11 8 7 8 7 7 4 3 8 11 12 15 17 20 22 25 23 24 25 23 22 20 24 26 26 27 27 28 28 29 29 29 29 29
18 16 14 13 9 9 9 8 7 7 9 10 7 11 12 16 17 18 19 21 21 23 23 21 19 22 26 26 28 28 29 28 28 28 28 26 25 28
22 16 12 11 12 11 9 8 7 8 9 11 9 9 12 15 15 18 17 17 19 21 22 22 23 27 27 28 30 31 29 26 27 26 24 22 22 24
24 23 21 15 14 11 10 7 8 7 7 8 9 8 12 12 15 15 16 18 19 23 19 23 25 24 24 27 30 28 28 31 30 25 20 17 20 21
20 15 15 16 13 12 10 9 8 7 6 6 8 9 9 9 12 14 20 20 23 18 17 25 22 20 22 32 31 29 32 30 27 22 16 15 18 18
21 16 13 14 16 14 10 8 8 8 6 6 6 7 8 9 11 12 17 24 24 11 26 22 20 18 21 25 32 34 32 29 22 16 14 14 15 16
23 17 17 18 16 15 14 12 9 8 7 7 6 7 8 10 12 16 17 14 7 12 22 23 15 18 20 24 30 29 31 26 16 12 14 16 17 14
20 18 15 10 10 7 8 8 7 6 8 7 8 8 7 6 13 16 15 17 15 20 17 15 14 19 17 26 27 29 32 28 16 13 14 16 18 13
19 17 13 13 11 11 9 8 7 6 7 7 8 9 9 10 12 12 15 17 19 11 11 7 19 18 14 26 24 26 29 26 13 12 15 16 12 10
22 18 14 13 14 14 8 8 6 6 5 8 9 9 9 9 8 11 12 13 9 8 8 13 12 19 13 23 28 24 26 26 24 9 6 7 5 13
20 16 17 13 12 10 5 5 4 3 4 3 4 5 4 4 6 8 9 10 9 5 9 18 12 14 8 8 27 27 26 27 28 25 23 20 27 41
21 19 15 14 12 7 6 5 5 3 3 3 2 1 2 4 4 6 7 6 8 6 12 16 10 13 6 9 12 24 25 28 29 27 25 23 31 53
24 21 18 16 12 7 7 4 3 3 2 2 2 2 2 3 5 4 4 4 5 8 14 10 8 11 10 6 7 16 21 24 27 31 33 29 30 35
21 21 21 16 12 10 7 6 4 3 3 2 1 1 4 6 6 6 7 5 6 11 13 10 9 8 8 6 5 10 9 19 25 27 33 32 30 36
25 24 20 15 12 11 8 6 6 3 2 1 1 3 3 4 5 5 5 5 3 6 10 14 11 7 7 9 9 11 13 6 18 24 29 33 35 36
27 21 16 14 13 9 7 6 5 3 2 2 2 2 3 4 4 5 5 5 5 6 8 9 11 12 12 9 10 12 13 13 16 20 27 32 33 32
22 18 16 14 12 11 9 7 6 5 3 2 2 2 2 3 3 5 5 6 5 6 7 7 5 2 2 15 16 11 13 13 19 22 23 27 28 26
18 16 15 14 12 11 10 8 7 5 4 4 3 2 2 4 4 5 5 5 6 7 8 8 7 5 3 5 9 14 12 14 17 23 24 27 27 26
16 16 16 14 12 12 10 9 7 6 4 4 3 3 4 4 5 4 5 6 6 7 9 10 10 11 8 5 10 14 12 15 17 22 27 32 31 27
17 16 15 14 12 11 10 8 8 6 5 5 5 5 5 5 5 5 6 8 7 8 8 10 9 10 12 14 16 17 19 16 20 21 21 22 21 20
17 16 15 14 12 11 10 9 8 6 5 5 5 5 7 5 5 6 5 6 8 8 8 7 7 8 12 16 17 18 19 20 18 18 15 14 9 8
17 16 16 14 12 11 10 9 8 7 6 6 6 5 5 6 6 6 6 7 7 8 8 10 11 12 14 15 17 18 17 16 16 18 16 7 18 21
Wind_Direction
196 183 174 175 186 188 202 213 235 266 282 199 282 298 315 315 317 319 319 312 315 318 317 320 315 313 313 309 305 302 298 292 289 287 285 285 285 287
175 174 171 176 179 189 192 204 216 244 264 240 281 297 307 313 318 322 319 322 320 319 322 321 318 317 317 315 313 309 303 298 294 288 284 283 283 286
169 171 171 173 174 187 196 208 211 229 257 281 285 301 308 316 323 327 328 325 324 323 328 326 323 317 319 321 317 315 310 301 297 293 280 277 279 285
170 162 164 179 193 191 196 213 216 228 257 278 292 303 312 319 324 329 336 335 328 325 322 325 329 330 327 329 328 320 316 311 303 300 288 274 276 284
170 174 173 185 191 196 196 205 225 232 244 268 285 300 310 316 325 329 334 337 337 326 330 329 325 323 333 329 326 326 318 309 300 293 283 274 282 292
178 181 176 184 195 196 194 204 221 234 239 259 275 294 308 312 319 325 329 337 335 336 329 331 331 329 330 338 339 330 327 322 307 279 271 277 280 289
166 173 176 186 189 186 192 201 213 225 229 249 275 286 290 315 324 326 322 323 332 321 328 334 331 329 332 336 338 337 333 325 311 282 269 283 287 283
163 167 180 187 189 197 195 191 198 222 227 241 256 264 284 311 318 323 323 324 332 331 326 323 332 329 338 344 340 346 341 325 307 273 269 284 296 280
167 168 165 166 168 177 195 210 224 230 231 237 253 265 280 303 314 316 323 317 306 313 322 315 334 336 345 348 350 355 352 333 299 270 269 284 292 277
165 165 161 170 176 182 192 202 213 231 240 236 244 270 281 296 303 306 311 311 321 316 334 303 328 333 340 356 359 5 10 354 315 276 265 282 273 262
162 160 163 172 187 180 190 201 220 241 248 232 249 255 275 291 316 330 335 331 325 324 316 337 326 329 331 3 7 15 32 29 22 5 309 259 218 172
156 156 161 170 173 172 192 193 213 231 244 248 258 253 261 295 325 345 337 328 323 306 347 349 326 347 330 337 9 17 30 43 55 77 88 145 147 117
154 155 163 168 164 166 166 185 200 202 203 188 201 269 309 319 327 329 332 349 336 301 321 344 312 341 312 323 354 20 34 48 51 68 89 93 114 125
157 157 161 159 158 147 147 159 158 159 170 186 216 276 317 334 329 331 335 344 350 325 326 338 308 342 327 331 353 9 35 56 62 60 72 86 102 111
152 157 150 149 145 142 146 146 137 146 149 147 178 357 338 324 342 347 353 332 345 353 1 358 341 342 9 20 28 18 20 40 65 71 74 72 78 91
140 142 142 144 150 145 138 135 126 131 141 128 28 358 345 352 1 357 3 13 322 356 5 21 22 22 37 45 53 36 39 56 55 66 77 85 91 94
139 140 146 149 145 147 140 127 118 125 114 89 62 25 8 3 19 13 16 21 18 4 12 20 36 54 65 56 56 56 58 58 60 72 79 76 78 91
144 152 154 152 150 152 142 134 134 121 110 101 88 80 54 40 25 25 33 28 19 13 9 1 351 305 94 56 61 64 63 65 73 76 80 84 75 84
148 153 149 146 149 146 146 154 145 134 133 132 117 99 69 64 38 37 32 30 27 23 20 9 9 359 53 80 61 62 76 73 77 76 79 80 86 86
152 149 149 148 151 147 150 148 142 138 130 114 104 85 69 77 63 55 48 35 33 34 36 30 33 32 57 74 91 61 85 90 89 88 89 92 95 100
148 149 149 148 150 147 145 140 134 127 123 123 110 100 89 88 78 66 61 56 35 45 45 47 52 82 97 102 91 77 70 92 102 104 107 105 106 105
148 147 145 145 147 145 139 139 130 130 128 117 108 101 92 93 80 78 68 60 63 67 66 72 75 78 86 95 95 98 95 92 87 97 103 113 127 128
146 145 141 141 142 143 143 141 144 139 134 127 124 113 98 94 88 89 82 73 79 85 86 88 89 90 90 95 100 104 107 100 93 82 74 87 119 115